Change the Weather History Date:

Thursday, October 31, 2013

  Actual Average (KMIE) Record (KMIE)
Temperature  
Mean Temperature 58 °F 49 °F  
Max Temperature 62 °F 59 °F 78 °F (1971)
Min Temperature 54 °F 39 °F 18 °F (1988)
Degree Days  
Heating Degree Days 6 16  
Month to date heating degree days 364  
Since 1 July heating degree days 464  
Cooling Degree Days 0 0  
Month to date cooling degree days 16  
Year to date cooling degree days 955  
Growing Degree Days 8 (Base 50)    
Moisture  
Dew Point 59 °F    
Average Humidity 96    
Maximum Humidity 99    
Minimum Humidity 90    
Precipitation  
Precipitation 0.66 in 0.10 in 1.18 in (2013)
Month to date precipitation 2.92  
Year to date precipitation 33.79  
Sea Level Pressure  
Sea Level Pressure 29.62 in    
Wind  
Wind Speed 17 mph (SSW)    
Max Wind Speed 28 mph    
Max Gust Speed 38 mph    
Visibility 5 miles    
Events Rain    
T = Trace of Precipitation, MM = Missing Value Source: NWS Daily Summary

Daily Weather History Graph

Daily Weather History Graph

Search for Another Location

Airport or City:

Trip Planner

Search our weather history database for the weather conditions in past years. The results will help you decide how hot, cold, wet, or windy it might be!

Date:

Astronomy

Oct. 31, 2013 Rise Set
Actual Time 8:11 AM EDT 6:40 PM EDT
Civil Twilight 7:43 AM EDT 7:08 PM EDT
Nautical Twilight 7:11 AM EDT 7:40 PM EDT
Astronomical Twilight 6:39 AM EDT 8:12 PM EDT
Moon 4:59 AM EDT (10/31) 4:58 PM EDT (10/31)
Length of Visible Light 11h 25m
Length of Day
10h 28m
Waning Crescent, 10% of the Moon is Illuminated
Oct 31
Waning Crescent
Nov 3
New
Nov 10
First Quarter
Nov 17
Full
Nov 25
Last Quarter

Hourly Weather History & Observations

Time (EDT) Temp. Dew Point Humidity Pressure Visibility Wind Dir Wind Speed Gust Speed Precip Events Conditions
12:15 AM 62.6 °F 61.7 °F 97% 29.94 in 4.0 mi SSW 13.8 mph - N/A   Overcast
12:35 AM 62.2 °F 61.3 °F 97% 29.93 in 5.0 mi SSW 13.8 mph - 0.01 in   Overcast
12:55 AM 62.2 °F 61.3 °F 97% 29.93 in 5.0 mi SSW 15.0 mph - 0.01 in   Overcast
1:15 AM 62.6 °F 61.7 °F 97% 29.93 in 4.0 mi SSW 16.1 mph 23.0 mph N/A Rain Light Rain
1:35 AM 62.6 °F 61.7 °F 97% 29.91 in 3.0 mi SSW 17.3 mph 23.0 mph 0.01 in Rain Heavy Rain
1:55 AM 62.6 °F 61.5 °F 96% 29.91 in 5.0 mi SSW 15.0 mph - 0.01 in Rain Light Rain
2:15 AM 62.2 °F 61.2 °F 96% 29.90 in 7.0 mi SSW 15.0 mph - N/A   Overcast
2:35 AM 62.1 °F 61.2 °F 97% 29.90 in 5.0 mi SSW 19.6 mph 26.5 mph 0.01 in   Overcast
2:55 AM 61.9 °F 61.3 °F 98% 29.89 in 7.0 mi SSW 15.0 mph 21.9 mph 0.01 in   Overcast
3:15 AM 61.7 °F 61.2 °F 98% 29.89 in 7.0 mi SSW 15.0 mph 21.9 mph N/A   Overcast
3:35 AM 61.3 °F 61.2 °F 99% 29.89 in 5.0 mi SSW 15.0 mph - 0.01 in   Overcast
3:55 AM 61.2 °F 61.0 °F 99% 29.86 in 7.0 mi SSW 11.5 mph - 0.01 in   Overcast
4:15 AM 61.0 °F 60.8 °F 99% 29.85 in 7.0 mi South 10.4 mph - 0.01 in   Overcast
4:35 AM 60.8 °F 60.6 °F 99% 29.84 in 7.0 mi South 12.7 mph - 0.01 in   Overcast
4:55 AM 60.8 °F 60.4 °F 99% 29.84 in 7.0 mi SSW 13.8 mph - 0.01 in   Overcast
5:15 AM 61.0 °F 60.1 °F 97% 29.83 in 7.0 mi South 13.8 mph - N/A   Overcast
5:35 AM 61.0 °F 59.9 °F 96% 29.82 in 10.0 mi South 13.8 mph - N/A   Overcast
5:55 AM 61.0 °F 59.7 °F 96% 29.81 in 7.0 mi South 15.0 mph - 0.01 in   Overcast
6:15 AM 61.0 °F 59.4 °F 94% 29.80 in 7.0 mi SSW 17.3 mph - N/A   Overcast
6:35 AM 61.0 °F 59.0 °F 93% 29.80 in 10.0 mi SSW 15.0 mph 23.0 mph N/A   Overcast
6:55 AM 61.0 °F 58.8 °F 93% 29.79 in 10.0 mi South 17.3 mph - N/A   Overcast
7:15 AM 60.8 °F 58.3 °F 91% 29.78 in 10.0 mi SSW 18.4 mph - N/A   Overcast
7:35 AM 60.8 °F 57.9 °F 90% 29.78 in 7.0 mi SSW 17.3 mph 21.9 mph N/A   Overcast
7:55 AM 60.4 °F 57.6 °F 90% 29.77 in 4.0 mi SSW 15.0 mph - N/A   Overcast
8:15 AM 59.7 °F 57.4 °F 92% 29.76 in 4.0 mi SSW 18.4 mph 25.3 mph N/A   Overcast
8:35 AM 59.2 °F 56.7 °F 91% 29.75 in 3.0 mi South 15.0 mph - 0.01 in Rain Light Rain
8:55 AM 59.0 °F 56.8 °F 93% 29.75 in 2.5 mi SSW 17.3 mph 24.2 mph 0.01 in Rain Light Rain
9:15 AM 59.0 °F 57.2 °F 94% 29.74 in 4.0 mi South 18.4 mph 23.0 mph N/A Rain Light Rain
9:35 AM 59.2 °F 57.2 °F 93% 29.74 in 4.0 mi South 18.4 mph 25.3 mph 0.01 in Rain Light Rain
9:55 AM 59.2 °F 57.2 °F 93% 29.74 in 7.0 mi SSW 18.4 mph 26.5 mph 0.01 in   Overcast
10:15 AM 59.5 °F 57.4 °F 93% 29.73 in 7.0 mi SSW 19.6 mph 26.5 mph N/A Rain Light Rain
10:35 AM 59.7 °F 57.6 °F 93% 29.72 in 5.0 mi SSW 19.6 mph 26.5 mph 0.01 in   Overcast
10:55 AM 59.9 °F 58.1 °F 94% 29.72 in 7.0 mi SSW 16.1 mph 25.3 mph 0.01 in   Overcast
11:15 AM 60.1 °F 58.5 °F 94% 29.71 in 5.0 mi SSW 20.7 mph - N/A   Overcast
11:35 AM 59.9 °F 58.5 °F 95% 29.70 in 5.0 mi SSW 18.4 mph 21.9 mph 0.01 in Rain Light Rain
11:55 AM 59.9 °F 58.5 °F 95% 29.70 in 5.0 mi SSW 17.3 mph 25.3 mph 0.01 in Rain Light Rain
12:15 PM 59.9 °F 58.6 °F 96% 29.69 in 3.0 mi SSW 19.6 mph 24.2 mph N/A Rain Light Rain
12:35 PM 59.7 °F 58.5 °F 96% 29.68 in 3.0 mi SSW 19.6 mph 26.5 mph N/A Rain Light Rain
12:55 PM 59.4 °F 58.3 °F 96% 29.65 in 3.0 mi South 19.6 mph 23.0 mph 0.01 in Rain Light Rain
1:15 PM 59.4 °F 58.1 °F 96% 29.63 in 4.0 mi South 19.6 mph 25.3 mph N/A Rain Light Rain
1:35 PM 59.2 °F 57.9 °F 96% 29.61 in 4.0 mi South 18.4 mph 24.2 mph 0.01 in Rain Light Rain
1:55 PM 59.0 °F 57.9 °F 96% 29.58 in 3.0 mi South 20.7 mph 25.3 mph 0.02 in Rain Light Rain
2:15 PM 59.0 °F 57.7 °F 96% 29.54 in 5.0 mi South 21.9 mph 27.6 mph 0.01 in Rain Light Rain
2:35 PM 59.0 °F 57.6 °F 95% 29.53 in 2.0 mi South 23.0 mph 28.8 mph 0.02 in Rain Light Rain
2:55 PM 59.0 °F 57.7 °F 96% 29.51 in 5.0 mi South 21.9 mph 28.8 mph 0.02 in   Overcast
3:15 PM 58.8 °F 57.7 °F 96% 29.49 in 2.5 mi South 20.7 mph 28.8 mph N/A   Overcast
3:35 PM 58.6 °F 57.6 °F 96% 29.47 in 2.5 mi South 23.0 mph 26.5 mph 0.02 in   Overcast
3:55 PM 58.6 °F 57.7 °F 97% 29.45 in 5.0 mi South 21.9 mph 26.5 mph 0.03 in   Overcast
4:15 PM 59.2 °F 58.1 °F 96% 29.44 in 7.0 mi South 20.7 mph 28.8 mph 0.01 in   Overcast
4:35 PM 59.5 °F 58.3 °F 96% 29.43 in 10.0 mi South 23.0 mph 29.9 mph 0.02 in   Overcast
4:55 PM 59.9 °F 58.8 °F 96% 29.43 in 7.0 mi South 21.9 mph 32.2 mph 0.03 in   Overcast
5:15 PM 60.1 °F 59.0 °F 96% 29.42 in 4.0 mi South 18.4 mph 26.5 mph 0.01 in   Overcast
5:35 PM 59.9 °F 59.4 °F 98% 29.41 in 2.0 mi SSW 13.8 mph - 0.02 in Rain Light Rain
5:55 PM 60.1 °F 59.5 °F 98% 29.39 in 4.0 mi South 15.0 mph 20.7 mph 0.03 in   Overcast
6:15 PM 60.3 °F 59.9 °F 99% 29.38 in 4.0 mi South 16.1 mph 25.3 mph 0.01 in Rain Light Rain
6:35 PM 60.4 °F 59.9 °F 98% 29.36 in 5.0 mi South 16.1 mph 23.0 mph 0.02 in Rain Light Rain
6:55 PM 61.0 °F 60.3 °F 97% 29.34 in 7.0 mi South 17.3 mph 23.0 mph 0.03 in Rain Light Rain
7:15 PM 61.3 °F 60.8 °F 98% 29.36 in 1.5 mi SW 13.8 mph 20.7 mph 0.01 in Rain Heavy Rain
7:35 PM 61.0 °F 60.6 °F 99% 29.38 in 2.0 mi SW 23.0 mph 29.9 mph 0.03 in Rain Rain
7:55 PM 60.4 °F 59.4 °F 96% 29.35 in 4.0 mi SW 18.4 mph 24.2 mph 0.05 in Rain Rain
8:15 PM 60.1 °F 58.6 °F 95% 29.34 in 7.0 mi SW 16.1 mph 21.9 mph 0.01 in Rain Light Rain
8:35 PM 60.3 °F 58.6 °F 94% 29.34 in 7.0 mi SW 19.6 mph 24.2 mph 0.03 in   Overcast
8:55 PM 60.3 °F 59.0 °F 96% 29.31 in 5.0 mi SW 13.8 mph - 0.05 in Rain Light Rain
9:15 PM 59.9 °F 58.8 °F 96% 29.29 in 2.5 mi SW 15.0 mph 19.6 mph 0.02 in Rain Heavy Rain
9:35 PM 59.4 °F 58.6 °F 97% 29.29 in 2.5 mi WSW 15.0 mph 20.7 mph 0.04 in Rain Rain
9:55 PM 59.2 °F 58.6 °F 98% 29.32 in 2.5 mi WSW 26.5 mph 36.8 mph 0.07 in Rain Rain
10:15 PM 59.0 °F 57.7 °F 96% 29.30 in 7.0 mi West 27.6 mph 38.0 mph 0.03 in   Overcast
10:35 PM 57.7 °F 56.1 °F 94% 29.31 in 10.0 mi WNW 24.2 mph 29.9 mph 0.07 in   Overcast
10:55 PM 55.8 °F 54.3 °F 95% 29.36 in 10.0 mi West 17.3 mph 26.5 mph 0.11 in Rain Light Rain
11:15 PM 55.2 °F 53.8 °F 95% 29.39 in 7.0 mi West 15.0 mph - 0.03 in Rain Light Rain
11:35 PM 55.0 °F 53.6 °F 95% 29.39 in 7.0 mi West 15.0 mph 23.0 mph 0.07 in Rain Light Rain
11:55 PM 54.7 °F 53.1 °F 94% 29.39 in 7.0 mi WNW 20.7 mph 26.5 mph 0.11 in   Overcast